NOAA 16 DEB, 41126

Orbit data source: Space-Track

NOAA 16 DEB, 41126 is space debris in SSO originally from a launch on Thu, 21 Sep 2000 UTC launched from the Air Force Western Test Range (AFWTR). Debris objects in space refer to the collection of defunct objects orbiting the Earth. Examples of debris include non-operational satellites, rocket bodies, and fragments generated from explosions, collisions, or faulty payload assembly.

Loading next visibility...
Identifier
41126, 2000-055BH
Orbit
SSO
Country
Flag of USUS
Related business
Manufacturer
Unknown
Mission
Spacecraft
Bus & Motor
Unknown
Mass
Unknown
Launch date (UTC)
2000-09-21 (25 years ago)
Launch vehicle
Unknown
Launch site
Air Force Western Test Range (AFWTR)
Object type
Payload
Rocket body
Debris
Shape & HBR
Unknown shape, 0.1 m
Radar Cross Section
Small (<0.1 m²)

Expand to show TLE details & history
Last TLE update: 2 days ago

TLE from 2 days ago
0 NOAA 16 DEB
1 41126U 00055BH  26032.27524567  .00002964  00000-0  15751-2 0  9997
2 41126  98.7659  37.6634 0066404  23.1831 337.2313 14.13128700520137
Epoch: 2026-02-01T06:36Z
TLE epoch observation values (Epoch: 2026-02-01T06:36:21.225Z)
Latitude
-0.00009°
Longitude
167.08775°
Altitude
807.378 km
Speed
7.472 km/s
True Right ascension
02h 30m 39s
True Declination
0° 00' 00"
Sunlit
Object was in daylight at epoch
Visualization orbit readout
Latitude
Unknown
Longitude
Unknown
Altitude
Unknown
Speed
Unknown
Apparent Right ascension
Unknown
Apparent Declination
Unknown
Sunlit
N/A
Visualization observer readout
Local Sidereal Time
12:52:54
Azimuth
Unknown
Elevation
Unknown
Doppler factor
Unknown
Orbital elements
Apogee altitude
893.826 km
Perigee altitude
797.885 km
Semi-major axis
7,223.992 km
Eccentricity
0.00664
Inclination
98.7659°
RAAN
37.6634°
Arg. of periapsis
23.1831°
True anomaly
336.93454°
Mean anomaly
337.2313°
Eccentric anomaly
337.08315°
Mean motion
3.5349 °/min
Orbital period
101.84 mins
BSTAR
0.0015751
Loading maneuver chart data...
Computing Atmospheric mass density...
Loading historical data...
Loading historical data...
Loading historical data...
Loading historical data...
Loading historical data...
Loading historical data...
Loading historical data...

Documentation

Showing up to 5 results
|